sat.trackr.live / text

‹ back to catalog

STARLINK-31322

NORAD 59168 · 2024-044S

PAYLOAD ACTIVE UNKNOWN

§ Identity

Operator
Country
US
Launch date
2024-03-04
Launch site
AFETR
Launch vehicle
Mass (kg)
RCS (m²)

Purposes: comms

External: N2YO · Heavens-Above · Gunter

§ Orbital elements

Epoch: 2026-09-20T21:07:09.198048Z

Period
94.27 min
Inclination
43.0019°
Eccentricity
0.0000759
Mean motion
15.27560217 rev/d
Perigee alt
482.6 km
Apogee alt
483.6 km
Semi-major
6,861.2 km
B*
2.5220e-4
RAAN
85.0148°
Arg perigee
264.3383°
Mean anomaly
95.7382°
Rev number
14,344

§ Raw data

STARLINK-313221 59168U 24044S   26263.87996757  .00006680  00000+0  25220-3 0  99932 59168  43.0019  85.0148 0000759 264.3383  95.7382 15.27560217143440

JSON: /api/v1/satellites/59168 · /tle

For live sub-satellite position, see the globe view (requires WebGL).

§ Visibility from observer

Set your observer location to see the next 7 days of passes ≥ 10°. The values pass through the URL so the page stays shareable.

No JS? Fill the form by hand. The geolocation button needs JavaScript.